Content
SEND FEEDBACK

Daily
Averages
Monthly
Summary
Philippines

OLONGAPO, PHILIPPINES


Home > Asia > Philippines
Elevation: 16 meters     Latitude: 14 48N     Longitude: 120 16E

WEATHER
 
SELECT A DAY
Number of Records: 135,049;   Date Range: 7/31/96 - 8/28/14
 
SHARE

PRINT THIS DATA

[ ← Previous Day ]
WEATHER ALMANAC - 1 AUGUST, 2013
[ Next Day → ]
[ °F ]   °C
Weather ElementAverageHighLow
Temperature24 °C28.3 °C (2:00 pm) (2:00 pm)
Dewpoint22.4 °C25 °C (11:00 am) (7:00 pm)
Humidity90.1 %94 % (2:00 am)77 % (2:00 pm)
Barometer1005.1 hPa1008.5 hPa (11:00 pm)1003 hPa (3:00 am)
Wind Speed9.2 km/h18 km/h (5:00 pm)
Weather ElementAverage
Visibility8.7 km
Wind DirectionSSE (142.4 °)

Weather ElementTotal
Precipitation---
Heating Degree Days13.1 (Base 18.3)
Averaged from 29 records on 1 August, 2013
WEATHER CONDITIONS BREAKOUT
WIND DIRECTION BREAKOUT
WEATHER BY HOUR - 1 AUGUST, 2013
[ °F ]   °C
Local TimeTemperatureDewpointHumidityBarometerVisibilityWind DirectionWind SpeedGust SpeedPrecipitationEventsConditions
2:00 AM24.4 °C17.7 kmEast (80°)7.2 km/hOvercast
2:00 AM25 °C24 °C94 %1004.1 hPa10 kmEast (80°)5.6 km/hMostly Cloudy
3:00 AM25 °C24 °C94 %1003 hPa10 kmSouth (170°)1.9 km/hMostly Cloudy
4:00 AM25 °C24 °C94 %1003 hPa8 kmENE (70°)7.4 km/hRainLight Rain Showers
5:00 AM24 °C23 °C94 %1003 hPa6 kmEast (100°)7.4 km/hRainLight Rain
6:00 AM25 °C23 °C89 %1003 hPa4 kmVariable5.6 km/hRainLight Rain
7:00 AM25 °C23 °C89 %1004.1 hPa4 kmVariable3.7 km/hRainLight Rain
8:00 AM25 °C24 °C94 %1004.1 hPa8 kmEast (80°)3.7 km/hRainLight Rain
8:00 AM25 °C23.3 °C90 %1004.4 hPa8 kmEast (80°)3.5 km/hRainRain
9:00 AM25 °C24 °C94 %1005.1 hPa8 kmSW (220°)9.3 km/hRainLight Rain
10:00 AM26 °C24 °C89 %1005.1 hPa10 kmSW (220°)5.6 km/hOvercast
11:00 AM25 °C23.3 °C90 %1004.4 hPa8 kmEast (80°)3.5 km/hRainRain
11:00 AM27 °C25 °C89 %1005.1 hPa10 kmSE (130°)5.6 km/hOvercast
12:00 PM26 °C25 °C94 %1005.1 hPa8 kmSouth (170°)16.7 km/hRainRain
1:00 PM27 °C25 °C89 %1004.1 hPa9 kmSouth (180°)11.1 km/hRainRain Showers
2:00 PM28.3 °C25 °C77 %1004.4 hPa9.7 kmSouth (180°)7.2 km/hOvercast
2:00 PM-17.8 °C-17.8 °C1004.1 hPa9 kmSouth (180°)5.6 km/hRainRain Showers
3:00 PM25 °C24 °C94 %1004.1 hPa8 kmSSW (200°)14.8 km/hRainRain
4:00 PM25 °C24 °C94 %1004.1 hPa8 kmSSE (160°)14.8 km/hRainRain
5:00 PM25.6 °C23.3 °C83 %1005.1 hPa8 kmSouth (180°)18 km/hRainRain
5:00 PM26 °C24 °C89 %1005.1 hPa8 kmSouth (180°)16.7 km/hRainRain
6:00 PM25 °C23 °C89 %1005.1 hPa8 kmSouth (170°)14.8 km/hRainLight Rain
7:00 PM25 °C23 °C89 %1006.1 hPa9 kmSouth (170°)11.1 km/hRainLight Rain Showers
8:00 PM25 °C23.3 °C90 %1006.1 hPa8 kmSouth (170°)3.5 km/hRainRain
8:00 PM25 °C24 °C94 %1006.1 hPa8 kmSouth (170°)1.9 km/hRainRain
9:00 PM26 °C24 °C89 %1007.1 hPa9 kmSouth (180°)14.8 km/hRainLight Rain Showers
10:00 PM26 °C24 °C89 %1008.1 hPa10 kmSouth (170°)16.7 km/hOvercast
11:00 PM26.7 °C24.4 °C84 %1008.5 hPa8 kmSouth (180°)14.3 km/hHaze
11:00 PM26 °C24 °C89 %1008.1 hPa10 kmSouth (180°)14.8 km/hOvercast
Hourly data recorded from RPLB, located 0 kilometers away from Olongapo, Philippines







STORIES FROM OUR PARTNERS